Location: Montbazon
(47.2835°N, 0.6999°E)
Time: 06:44:31
(UTC+00:00)

BlueWalker 3 - Pass Details

Date: 08 November 2025
Orbit: 455 x 462 km, 53.2° (Epoch: 10 December)

Event Time Altitude Azimuth Distance (km) Brightness Sun altitude
Exits shadow 05:26:06 27° 258° (WSW) 925 2.7 -14.6°
Maximum altitude 05:27:14 34° 221° (SW) 787 2.6 -14.4°
Drops below altitude 10° 05:30:31 10° 155° (SSE) 1,600 5.0 -13.9°
Sets 05:32:46 0° 146° (SE) 2,469 6.2 -13.5°
